Location: Olmeneta
(45.2333°N, 10.0167°E)
Time: 07:27:52
(UTC+00:00)

Cosmos 864 Rocket - Pass Details

Date: 03 March 2021
Orbit: 954 x 990 km, 82.9° (Epoch: 10 April)

Event Time Altitude Azimuth Distance (km) Brightness Sun altitude
Rises 19:04:03 0° 180° (S) 3,621 7.4 -20.8°
Reaches altitude 10° 19:06:31 10° 178° (S) 2,682 6.7 -21.2°
Maximum altitude 19:12:38 74° 95° (E) 1,003 4.3 -22.2°
Drops below altitude 10° 19:18:51 10° 12° (NNE) 2,723 6.9 -23.3°
Sets 19:21:22 0° 10° (N) 3,679 7.6 -23.7°
